Regional Weather Roundup
Issued by NWS Jackson, KY

Home | Current Version | Previous Version | Graphics & Text | Print | Product List | Glossary On
Versions: 1 2 3 4 5 6 7 8 9 10 11 12 13 14 15 16 17 18 19 20 21 22 23 24 25 26 27 28 29 30 31 32 33 34 35 36 37 38 39 40 41 42 43 44 45 46 47 48 49 50
000
ASUS43 KJKL 250510
RWRJKL

EAST KENTUCKY HOURLY WEATHER ROUNDUP
NATIONAL WEATHER SERVICE JACKSON KY
100 AM EDT WED APR 25 2018

NOTE: "FAIR" INDICATES FEW OR NO CLOUDS BELOW 12,000 FEET WITH
NO SIGNIFICANT WEATHER AND/OR OBSTRUCTIONS TO VISIBILITY.

* THESE REPORTS ARE NOT UNDER NWS QUALITY CONTROL AND MAY NOT
  REPORT WEATHER SUCH AS PRECIPITATION AND FOG.

KYZ079-080-083-085-087-088-110-112-115-119-120-250600
...EASTERN KENTUCKY...

CITY           SKY/WX    TMP DP  RH WIND       PRES   REMARKS
JACKSON        CLOUDY    55  52  89 NW6       29.88S
LONDON         CLOUDY    55  54  96 W5        29.90S
SOMERSET*      CLOUDY    54  54 100 CALM      29.93S
MONTICELLO*    CLOUDY    54  53  97 NW8       29.94S
WILLIAMSBURG*  CLOUDY    54  54 100 CALM      29.91S
MIDDLESBORO*   CLOUDY    56  55  95 CALM      29.89R
HARLAN APT*    CLOUDY    55  55  97 W3        29.89S
PIKE CO APT*   FOG       54  54 100 CALM      29.86S VSB 1/4
BIG SANDY APT* CLOUDY    55  55 100 CALM      29.87S FOG
MOREHEAD APT*  FOG       55  54  94 NW5       29.90S VSB 1/4
ASHLAND*       CLOUDY    54  54 100 CALM      29.87S FOG
$$

KYZ035-036-041-042-044-050-067-078-099-250600
...CENTRAL KENTUCKY...

CITY           SKY/WX    TMP DP  RH WIND       PRES   REMARKS
MT STERLING*   CLOUDY    54  54 100 NW3       29.91S
FLEMING/MASON* CLOUDY    53  53 100 CALM      29.90S FOG
DANVILLE*      CLOUDY    54  52  94 NW6       29.92F FOG
LEXINGTON      CLOUDY    55  52  89 NW7       29.91S
FRANKFORT      CLOUDY    55  52  89 N5        29.90S
LOUISVILLE     DRIZZLE   56  54  93 NW6       29.93S
LEBANON*         N/A     54  54 100 NW6       29.92S FOG
GLASGOW*       CLOUDY    55  53  93 CALM      29.94S
BOWLING GREEN  CLOUDY    56  55  97 NW5       29.96S
$$

KYZ091>093-OHZ055-061-077-WVZ005-015-034-035-042-250600
...SOUTHERN OHIO/WEST VIRGINIA...

CITY           SKY/WX    TMP DP  RH WIND       PRES   REMARKS
COVINGTON      CLOUDY    53  52  96 N8        29.90S
COLUMBUS       CLOUDY    54  51  90 N3        29.88F
DAYTON         LGT RAIN  52  52 100 N5        29.91F VSB 1/2
WILMINGTON     FOG       55  54  96 N5        29.89S VSB 1/2
HUNTINGTON     LGT RAIN  55  53  93 N5        29.86S FOG
CHARLESTON     CLOUDY    54  54 100 CALM      29.85S
PINEVILLE*     CLOUDY    53  52  97 MISG      29.90S
BECKLEY        CLOUDY    52  49  89 E6        29.85S
BLUEFIELD      CLOUDY    49  48  97 E5        29.86S
LOGAN CO APT*  FOG       54  54 100 CALM      29.85S VSB<1/4
$$

VAZ002-007-008-TNZ017-027-036-066-071-250600
...SOUTHWEST VIRGINIA/EAST TENNESSEE...

CITY           SKY/WX    TMP DP  RH WIND       PRES   REMARKS
WISE*          FOG       52  52 100 W5        29.88S VSB 3/4
JONESVILLE*    CLOUDY    55  55 100 CALM      29.90R
ABINGDON*      RAIN      55  55 100 NW3       29.85S
BRISTOL        CLOUDY    56  56 100 W6        29.86R
MORRISTOWN*    CLOUDY    57  55  94 W5        29.87S
SEVIERVILLE*   CLOUDY    57  55  94 W6        29.88S
KNOXVILLE      CLOUDY    57  56  96 SW6       29.87F
LAFOLLETTE*    CLOUDY    57  54  88 CALM      29.92F
OAK RIDGE      CLOUDY    58  57  97 CALM      29.90S
CROSSVILLE     CLOUDY    53  51  93 NW7       29.93R
NASHVILLE      CLOUDY    58  53  84 NW9       29.97S
$$

...KEY TO REMARKS...
VSB - VISIBILITY IN MILES
WCI - WIND CHILL INDEX
HX  - HEAT INDEX

$$



USA.gov is the U.S. government's official web portal to all federal, state and local government web resources and services.